Location: Glendale
(37.4556°N, 88.6714°W)
Time: 00:02:39
(UTC+00:00)

Meteor 1-25 Rocket - Pass Details

Date: 08 December 2019
Orbit: 838 x 890 km, 81.2° (Epoch: 19 January)

Event Time Altitude Azimuth Distance (km) Brightness Sun altitude
Rises 11:00:48 0° 180° (S) 3,378 7.5 -22.3°
Reaches altitude 10° 11:03:12 10° 178° (S) 2,452 6.8 -21.8°
Maximum altitude 11:08:43 69° 96° (E) 907 4.5 -20.8°
Drops below altitude 10° 11:14:19 10° 14° (NNE) 2,497 6.6 -19.7°
Sets 11:16:47 0° 12° (NNE) 3,445 7.4 -19.2°
